Tracking 26894 objects as of 2-Feb-2023
HD Live streaming from Space Station
objects crossing your sky now

NSS 513 (INTELSAT 513)

Track NSS 513 (INTELSAT 513) now!
NSS 513 (INTELSAT 513) is classified as:


NORAD ID: 19121
Int'l Code: 1988-040A
Perigee: 36,218.0 km
Apogee: 36,336.0 km
Inclination: 15.1 °
Period: 1,460.9 minutes
Semi major axis: 42647 km
RCS: 9.2727 m2 (large)
Launch date: May 17, 1988
Source: Netherlands (NETH)
Launch site: FRENCH GUIANA (FRGUI)
Your satellite tracking list
Your tracking list is empty




NASA's NSSDC Master Catalog

Two Line Element Set (TLE):
1 19121U 88040A   23032.37359584 -.00000069  00000-0  00000-0 0  9994
2 19121  15.1369 357.9197 0013825  80.6542 287.1043  0.98572329102403
Source of the keplerian elements: AFSPC